McAllen, TX

12:06 PM CST on December 03, 2016 (GMT -0600)
McAllen Miller International

Weather History for KMFE - January, 2012

Change the Weather History Date:

Tuesday, January 17, 2012

  Actual Average Record
Temperature  
Mean Temperature 79 °F 61 °F  
Max Temperature 89 °F 71 °F 89 °F (1999)
Min Temperature 69 °F 51 °F 30 °F (1919)
Degree Days  
Heating Degree Days 0 6  
Month to date heating degree days 73 113  
Since 1 July heating degree days 272 350  
Cooling Degree Days 14 2  
Month to date cooling degree days 38 34  
Year to date cooling degree days 38 34  
Growing Degree Days 28 (Base 50)    
Moisture  
Dew Point 66 °F    
Average Humidity 68    
Maximum Humidity 90    
Minimum Humidity 45    
Precipitation  
Precipitation 0.00 in 0.03 in 0.78 in (1978)
Month to date precipitation 0.21 0.56  
Year to date precipitation 0.21 0.56  
Sea Level Pressure  
Sea Level Pressure 30.02 in    
Wind  
Wind Speed 9 mph (SSE)    
Max Wind Speed 21 mph    
Max Gust Speed 24 mph    
Visibility 10 miles    
Events      
T = Trace of Precipitation, MM = Missing Value Source: NWS Daily Summary

Daily Weather History Graph

Daily Weather History Graph

Search for Another Location

Airport or City:

Trip Planner

Search our weather history database for the weather conditions in past years. The results will help you decide how hot, cold, wet, or windy it might be!

Date:

Astronomy

Jan. 17, 2012 Rise Set
Actual Time 7:21 AM CST 6:04 PM CST
Civil Twilight 6:57 AM CST 6:29 PM CST
Nautical Twilight 6:28 AM CST 6:57 PM CST
Astronomical Twilight 6:01 AM CST 7:25 PM CST
Moon 1:46 AM CST (1/17) 12:57 PM CST (1/17)
Length of Visible Light 11h 31m
Length of Day
10h 42m
Waning Crescent, 35% of the Moon is Illuminated
Jan 17
Waning Crescent
Jan 23
New
Jan 30
First Quarter
Feb 7
Full
Feb 14
Last Quarter

Hourly Weather History & Observations

Time (CST) Temp. Heat Index Dew Point Humidity Pressure Visibility Wind Dir Wind Speed Gust Speed Precip Events Conditions
12:53 AM 70.0 °F - 66.0 °F 87% 30.01 in 10.0 mi SSE 17.3 mph 24.2 mph N/A   Clear
1:53 AM 70.0 °F - 64.9 °F 84% 29.99 in 10.0 mi SSE 13.8 mph - N/A   Clear
2:53 AM 70.0 °F - 64.9 °F 84% 29.97 in 10.0 mi SSE 16.1 mph 21.9 mph N/A   Clear
3:53 AM 70.0 °F - 64.9 °F 84% 29.98 in 10.0 mi SSE 13.8 mph - N/A   Clear
4:53 AM 69.1 °F - 64.9 °F 87% 30.00 in 10.0 mi South 9.2 mph - N/A   Partly Cloudy
5:13 AM 69.8 °F - 64.4 °F 83% 30.00 in 10.0 mi SSE 9.2 mph - N/A   Mostly Cloudy
5:53 AM 70.0 °F - 66.0 °F 87% 29.99 in 10.0 mi SSE 16.1 mph - N/A   Mostly Cloudy
6:09 AM 69.8 °F - 66.2 °F 88% 30.01 in 10.0 mi SSE 13.8 mph 20.7 mph N/A   Mostly Cloudy
6:53 AM 70.0 °F - 66.0 °F 87% 30.02 in 10.0 mi South 10.4 mph - N/A   Overcast
7:53 AM 69.1 °F - 66.0 °F 90% 30.03 in 9.0 mi South 6.9 mph - N/A   Mostly Cloudy
8:01 AM 69.8 °F - 66.2 °F 88% 30.04 in 9.0 mi South 6.9 mph - N/A   Mostly Cloudy
8:53 AM 71.1 °F - 66.0 °F 84% 30.05 in 10.0 mi SSE 9.2 mph - N/A   Mostly Cloudy
9:00 AM 71.6 °F - 66.2 °F 83% 30.06 in 10.0 mi SSE 11.5 mph - N/A   Partly Cloudy
9:53 AM 75.0 °F - 66.9 °F 76% 30.05 in 10.0 mi South 17.3 mph - N/A   Clear
10:53 AM 79.0 °F - 66.0 °F 64% 30.05 in 10.0 mi South 13.8 mph 21.9 mph N/A   Clear
11:53 AM 82.0 °F 84.1 °F 66.0 °F 58% 30.03 in 10.0 mi South 11.5 mph - N/A   Clear
12:53 PM 82.9 °F 85.0 °F 66.0 °F 56% 29.99 in 10.0 mi South 10.4 mph 16.1 mph N/A   Clear
1:53 PM 84.9 °F 87.1 °F 66.0 °F 53% 29.99 in 10.0 mi NW 3.5 mph - N/A   Clear
2:53 PM 88.0 °F 89.6 °F 64.9 °F 46% 29.98 in 10.0 mi NNW 4.6 mph - N/A   Clear
3:53 PM 88.0 °F 89.3 °F 64.0 °F 45% 29.96 in 10.0 mi NE 3.5 mph - N/A   Clear
4:53 PM 86.0 °F 86.8 °F 63.0 °F 46% 29.97 in 10.0 mi Calm Calm - N/A   Clear
5:53 PM 84.2 °F 86.6 °F 66.2 °F 55% 29.99 in 10.0 mi East 5.8 mph - N/A   Clear
6:53 PM 77.0 °F - 68.0 °F 74% 30.01 in 10.0 mi ESE 8.1 mph - N/A   Clear
7:53 PM 73.9 °F - 66.9 °F 79% 30.05 in 10.0 mi East 3.5 mph - N/A   Clear
8:53 PM 72.0 °F - 66.9 °F 84% 30.07 in 10.0 mi East 3.5 mph - N/A   Clear
9:53 PM 72.0 °F - 66.9 °F 84% 30.09 in 10.0 mi Calm Calm - N/A   Scattered Clouds
10:53 PM 70.0 °F - 66.0 °F 87% 30.10 in 10.0 mi Calm Calm - N/A   Clear
11:53 PM 70.0 °F - 64.9 °F 84% 30.11 in 10.0 mi North 5.8 mph - N/A   Partly Cloudy